Location: Milton
(43.5183°N, 79.8775°W)
Time: 06:49:56
(UTC+00:00)

N. Korean satellite - Pass Details

Date: 11 December 2022
Orbit: 407 x 444 km, 97.3° (Epoch: 28 January)

Event Time Altitude Azimuth Distance (km) Brightness Sun altitude
Rises 11:23:34 0° 359° (N) 2,484 10.0 -13.8°
Reaches altitude 10° 11:25:52 10° 346° (NNW) 1,596 8.9 -13.4°
Maximum altitude 11:28:41 24° 290° (WNW) 969 7.4 -12.9°
Drops below altitude 10° 11:31:26 10° 235° (SW) 1,559 8.8 -12.4°
Sets 11:33:39 0° 221° (SW) 2,411 9.9 -12.0°
